Torna al catalogo

SL-16 DEB

AttivoLEO
NORAD 22339·DEBRIS·🇷🇺 Russia

Lanciato Dec 25, 1992 da Baikonur Cosmodrome

Loading…

Prossimi Passaggi (prossime 24 ore)

TLE

AggiornatoSource: Space-Track

Epoca: Sep 14, 2026, 13:55 UTC

1 22339U 92093AC  26257.58036319  .00000055  00000-0  35077-4 0  9995
2 22339  70.8125 332.9183 0124120  23.9986 336.6862 14.35375520742901

Traccia SL-16 DEB in tempo reale con AllMySat

Download on the App Store